Terug naar catalogus

AMAN ZHINENG YAOGAN-1

ActiefMilitairSSO
NORAD 61899·PAYLOAD·🇨🇳 China
Deze satellietnaam is nog niet bevestigd door officiële bronnen.

Gelanceerd Nov 11, 2024 vanaf Jiuquan Satellite Launch Center

Loading…

Volgende Passages (komende 24 uur)

TLE

VersSource: Space-Track

Epoch: Sep 14, 2026, 14:34 UTC

1 61899U 24205F   26257.60739321  .00006738  00000-0  34834-3 0  9998
2 61899  97.4017 326.7799 0007870  82.2896 277.9231 15.16558397101826

Volg AMAN ZHINENG YAOGAN-1 in realtime met AllMySat

Download on the App Store